This demonstration page uses our WeatherBlox Daily Observations layout. Learn more.

Left ArrowRight Arrow

34.16533, -84.80231

Hourly Observations for December 28, 2017

Temp ( °F °C ) Dew Point ( °F °C ) Humidity (%) Winds ( mph kmh ) Pressure ( in mb ) Visibility ( mi km ) Precip ( " mm )
12:53 am 00:53 Clear 28 -2.2 21 -6.1 75 75 VRB 3 6 30.43 1030 10 16 0.00 0.00
1:53 am 01:53 Clear 28 -2.2 21 -6.1 75 75 N 7 11 30.44 1031 10 16 0.00 0.00
2:53 am 02:53 Clear 27 -2.8 21 -6.1 78 78 N 3 6 30.42 1030 10 16 0.00 0.00
3:53 am 03:53 Clear 27 -2.8 20 -6.7 75 75 N 3 6 30.42 1030 10 16 0.00 0.00
4:53 am 04:53 Clear 26 -3.3 20 -6.7 78 78 NNW 3 6 30.44 1031 10 16 0.00 0.00
5:53 am 05:53 Clear 26 -3.3 20 -6.7 78 78 Calm 30.45 1031 10 16 0.00 0.00
6:53 am 06:53 Clear 25 -3.9 20 -6.7 81 81 N 5 7 30.46 1032 10 16 0.00 0.00
7:53 am 07:53 Sunny 23 -5 20 -6.7 88 88 Calm 30.48 1032 10 16 0.00 0.00
8:53 am 08:53 Sunny 26 -3.3 21 -6.1 81 81 Calm 30.49 1032 10 16 0.00 0.00
9:53 am 09:53 Sunny 31 -0.6 24 -4.4 76 76 NNE 3 6 30.47 1032 10 16 0.00 0.00
10:53 am 10:53 Sunny 40 4.4 25 -3.9 55 55 ESE 9 15 30.44 1031 10 16 0.00 0.00
11:53 am 11:53 Sunny 41 5 24 -4.4 51 51 E 9 15 30.43 1031 10 16 0.00 0.00
12:53 pm 12:53 Sunny 44 6.7 23 -5 43 43 SE 7 11 30.40 1030 10 16 0.00 0.00
1:53 pm 13:53 Sunny 45 7.2 23 -5 42 42 VRB 7 11 30.38 1029 10 16 0.00 0.00
2:53 pm 14:53 Sunny 45 7.2 22 -5.6 40 40 VRB 3 6 30.36 1028 10 16 0.00 0.00
3:53 pm 15:53 Mostly Cloudy 46 7.8 23 -5 40 40 E 7 11 30.35 1028 10 16 0.00 0.00
4:53 pm 16:53 Cloudy 44 6.7 23 -5 43 43 VRB 3 6 30.37 1028 10 16 0.00 0.00
5:53 pm 17:53 Cloudy 43 6.1 24 -4.4 47 47 E 3 6 30.36 1028 10 16 0.00 0.00
6:53 pm 18:53 Cloudy 43 6.1 23 -5 45 45 E 5 7 30.37 1028 10 16 0.00 0.00
7:53 pm 19:53 Cloudy 42 5.6 23 -5 47 47 E 3 6 30.37 1029 10 16 0.00 0.00
8:53 pm 20:53 Cloudy 42 5.6 23 -5 47 47 E 5 7 30.37 1029 10 16 0.00 0.00
9:53 pm 21:53 Cloudy 41 5 22 -5.6 47 47 ESE 3 6 30.37 1029 10 16 0.00 0.00
10:53 pm 22:53 Cloudy 41 5 22 -5.6 47 47 VRB 3 6 30.37 1029 10 16 0.00 0.00
11:53 pm 23:53 Cloudy 40 4.4 22 -5.6 49 49 ESE 6 9 30.37 1029 10 16 0.00 0.00

Powered by AerisWeather